Location: Tel Aviv
(32.0670°N, 34.7670°E)
Time: 22:53:33
(UTC+02:00)

Vanguard 3 - Visible Passes

Search period start: 25 January 2022 00:00
Search period end: 04 February 2022 00:00
Orbit: 508 x 3260 km, 33.3° (Epoch: 25 January)

Date Brightness Start Highest point End Pass type
(mag) Time Alt. Az. Time Alt. Az. Time Alt. Az.
25 Jan 8.7 17:28:59 10° W 17:32:06 21° SSW 17:34:58 10° SSE visible
27 Jan 12.2 06:06:25 10° SSE 06:08:56 10° SE 06:11:22 10° SE visible
29 Jan 12.0 05:43:00 10° SSE 05:51:17 14° SE 05:58:47 10° ESE visible
31 Jan 11.8 05:22:17 10° S 05:33:27 18° SE 05:43:30 10° ESE visible
02 Feb 11.7 05:02:25 10° S 05:15:26 22° SE 05:27:23 10° E visible
03 Feb 11.9 03:54:05 10° SSE 03:58:53 11° SE 04:03:39 10° ESE visible
03 Feb 11.3 05:56:50 10° SSW 06:14:03 38° SE 06:28:31 10° E visible
